SES-21

Last updated on Thu Sep 24 2026 00:03:20 GMT+0000 (Coordinated Universal Time)

1 53961U 22123B 26265.74617529 .00000067 00000+0 00000+0 0 9997 2 53961 0.0358 62.3483 0001017 118.3652 318.5230 1.00271023 8199
UTC large
Height (km)
Speed (km/s)
/
Latitude / Longitude
Inclination (degrees)
Orbital Period (minutes)
Azimuth
Elevation
Range (km)
Doppler Factor

Next 0 passes for location: London (51.5072 / 0.1276)

No passes found over London.
SES-21